| time (UTC) | temp F | wind direction | speed MPH | gust MPH | rain 1hr in | rain 24hr in | rain mn in | humidity % | barometer mb |
| 20260901103105 | 71 | 0 | 0.0 | 0.0 | 0.00 | 0.00 | 0.00 | 97 | 1020.6 |
| 20260901101556 | 71 | 0 | 0.0 | 0.0 | 0.00 | 0.00 | 0.00 | 96 | 1020.6 |
| 20260901100058 | 72 | 0 | 0.0 | 0.0 | 0.00 | 0.00 | 0.00 | 95 | 1020.6 |
| 20260901094601 | 72 | 0 | 0.0 | 2.0 | 0.00 | 0.00 | 0.00 | 95 | 1020.4 |
| 20260901093100 | 72 | 0 | 0.0 | 0.0 | 0.00 | 0.00 | 0.00 | 95 | 1020.4 |
| 20260901091615 | 72 | 0 | 0.0 | 0.0 | 0.00 | 0.00 | 0.00 | 94 | 1020.4 |
| 20260901090104 | 73 | 0 | 0.0 | 0.0 | 0.00 | 0.00 | 0.00 | 93 | 1020.2 |
| 20260901084604 | 73 | 0 | 0.0 | 0.0 | 0.00 | 0.00 | 0.00 | 93 | 1020.1 |
| 20260901083106 | 73 | 0 | 0.0 | 0.0 | 0.00 | 0.00 | 0.00 | 94 | 1020.1 |
| 20260901081552 | 73 | 0 | 0.0 | 0.0 | 0.00 | 0.00 | 0.00 | 95 | 1020.0 |
| 20260901074555 | 73 | 0 | 0.0 | 0.0 | 0.00 | 0.00 | 0.00 | 93 | 1020.0 |
| 20260901073105 | 74 | 0 | 0.0 | 0.0 | 0.00 | 0.00 | 0.00 | 92 | 1020.0 |
| 20260901071558 | 74 | 0 | 0.0 | 0.0 | 0.00 | 0.00 | 0.00 | 93 | 1020.2 |
| 20260901064558 | 73 | 0 | 0.0 | 0.0 | 0.00 | 0.00 | 0.00 | 93 | 1020.4 |
| 20260901063058 | 74 | 0 | 0.0 | 0.0 | 0.00 | 0.00 | 0.00 | 93 | 1020.3 |
| 20260901061557 | 74 | 0 | 0.0 | 0.0 | 0.00 | 0.00 | 0.00 | 92 | 1020.3 |
| 20260901060054 | 74 | 0 | 0.0 | 0.0 | 0.00 | 0.00 | 0.00 | 92 | 1020.4 |
| 20260901054600 | 75 | 0 | 0.0 | 0.0 | 0.00 | 0.00 | 0.00 | 91 | 1020.4 |
| 20260901053102 | 75 | 0 | 0.0 | 0.0 | 0.00 | 0.00 | 0.00 | 90 | 1020.5 |
| 20260901051559 | 75 | 0 | 0.0 | 0.0 | 0.00 | 0.00 | 0.00 | 89 | 1020.7 |
| 20260901050057 | 76 | 0 | 0.0 | 0.0 | 0.00 | 0.00 | 0.00 | 89 | 1020.5 |
| 20260901044551 | 76 | 0 | 0.0 | 0.0 | 0.00 | 0.00 | 0.00 | 88 | 1020.6 |
| 20260901043101 | 77 | 0 | 0.0 | 0.0 | 0.00 | 0.00 | 0.00 | 87 | 1020.6 |
| 20260901041555 | 77 | 0 | 0.0 | 0.0 | 0.00 | 0.00 | 0.00 | 86 | 1020.5 |
| 20260901040057 | 78 | 0 | 0.0 | 0.0 | 0.00 | 0.00 | 0.00 | 86 | 1020.4 |
| 20260901034557 | 78 | 0 | 0.0 | 0.0 | 0.00 | 0.00 | 0.00 | 86 | 1020.3 |
| 20260901033055 | 78 | 0 | 0.0 | 0.0 | 0.00 | 0.00 | 0.00 | 85 | 1020.4 |
| 20260901031554 | 79 | 0 | 0.0 | 0.0 | 0.00 | 0.00 | 0.00 | 84 | 1020.4 |
| 20260901030055 | 79 | 0 | 0.0 | 0.0 | 0.00 | 0.00 | 0.00 | 83 | 1020.4 |
| 20260901024550 | 79 | 0 | 0.0 | 0.0 | 0.00 | 0.00 | 0.00 | 82 | 1020.3 |
| 20260901023059 | 80 | 0 | 0.0 | 0.0 | 0.00 | 0.00 | 0.00 | 80 | 1020.2 |
| 20260901021554 | 80 | 0 | 0.0 | 0.0 | 0.00 | 0.00 | 0.00 | 80 | 1020.3 |
| 20260901020059 | 80 | 0 | 0.0 | 0.0 | 0.00 | 0.00 | 0.00 | 80 | 1020.1 |
| 20260901014556 | 82 | 0 | 0.0 | 0.0 | 0.00 | 0.00 | 0.00 | 77 | 1019.9 |
| 20260901013115 | 82 | 0 | 0.0 | 0.0 | 0.00 | 0.00 | 0.00 | 76 | 1019.8 |
| 20260901011556 | 83 | 0 | 0.0 | 0.0 | 0.00 | 0.00 | 0.00 | 74 | 1019.6 |
| 20260901010059 | 84 | 0 | 0.0 | 0.0 | 0.00 | 0.00 | 0.00 | 73 | 1019.5 |
| 20260901004607 | 84 | 0 | 0.0 | 2.0 | 0.00 | 0.00 | 0.00 | 72 | 1019.4 |
| 20260901003056 | 85 | 0 | 0.0 | 0.0 | 0.00 | 0.00 | 0.00 | 71 | 1019.3 |
| 20260901001556 | 85 | 0 | 0.0 | 0.0 | 0.00 | 0.00 | 0.00 | 70 | 1019.3 |
| 20260901000052 | 86 | 0 | 0.0 | 1.0 | 0.00 | 0.00 | 0.00 | 69 | 1019.4 |
| 20260831234616 | 87 | 155 | 1.0 | 3.0 | 0.00 | 0.00 | 0.00 | 67 | 1019.4 |
| 20260831233057 | 89 | 155 | 0.0 | 4.0 | 0.00 | 0.00 | 0.00 | 65 | 1019.5 |
| 20260831231603 | 90 | 126 | 1.0 | 8.0 | 0.00 | 0.00 | 0.00 | 61 | 1019.6 |
| 20260831230056 | 94 | 179 | 2.0 | 4.0 | 0.00 | 0.00 | 0.00 | 55 | 1019.6 |
| 20260831224559 | 95 | 0 | 0.0 | 1.0 | 0.00 | 0.00 | 0.00 | 52 | 1019.6 |
| 20260831223058 | 94 | 0 | 0.0 | 1.0 | 0.00 | 0.00 | 0.00 | 53 | 1019.7 |
| 20260831221551 | 93 | 0 | 0.0 | 3.0 | 0.00 | 0.00 | 0.00 | 54 | 1019.7 |
| 20260831220058 | 94 | 302 | 0.0 | 4.0 | 0.00 | 0.00 | 0.00 | 54 | 1019.9 |
| 20260831214605 | 94 | 0 | 0.0 | 5.0 | 0.00 | 0.00 | 0.00 | 54 | 1020.0 |
| 20260831213102 | 95 | 0 | 0.0 | 2.0 | 0.00 | 0.00 | 0.00 | 53 | 1020.0 |
| 20260831211550 | 93 | 0 | 0.0 | 4.0 | 0.00 | 0.00 | 0.00 | 54 | 1020.0 |
| 20260831210057 | 93 | 134 | 2.0 | 7.0 | 0.00 | 0.00 | 0.00 | 54 | 1020.0 |
| 20260831204601 | 93 | 0 | 1.0 | 5.0 | 0.00 | 0.00 | 0.00 | 55 | 1020.2 |
| 20260831203102 | 93 | 0 | 0.0 | 3.0 | 0.00 | 0.00 | 0.00 | 55 | 1020.3 |
| 20260831201602 | 93 | 225 | 1.0 | 8.0 | 0.00 | 0.00 | 0.00 | 57 | 1020.4 |
| 20260831200058 | 92 | 137 | 1.0 | 5.0 | 0.00 | 0.00 | 0.00 | 56 | 1020.5 |
| 20260831194552 | 92 | 244 | 0.0 | 5.0 | 0.00 | 0.00 | 0.00 | 57 | 1020.8 |
| 20260831193128 | 92 | 0 | 1.0 | 6.0 | 0.00 | 0.00 | 0.00 | 57 | 1021.0 |
| 20260831191551 | 92 | 264 | 1.0 | 4.0 | 0.00 | 0.00 | 0.00 | 60 | 1020.9 |
| 20260831190101 | 91 | 299 | 2.0 | 6.0 | 0.00 | 0.00 | 0.00 | 57 | 1021.2 |
| 20260831184602 | 91 | 238 | 0.0 | 7.0 | 0.00 | 0.00 | 0.00 | 61 | 1021.4 |
| 20260831183102 | 91 | 0 | 1.0 | 7.0 | 0.00 | 0.00 | 0.00 | 64 | 1021.5 |
| 20260831181613 | 91 | 0 | 0.0 | 4.0 | 0.00 | 0.00 | 0.00 | 63 | 1021.6 |
| 20260831180107 | 90 | 170 | 1.0 | 6.0 | 0.00 | 0.00 | 0.00 | 65 | 1021.8 |
| 20260831174555 | 89 | 257 | 2.0 | 7.0 | 0.00 | 0.00 | 0.00 | 65 | 1021.9 |
| 20260831173102 | 89 | 249 | 0.0 | 4.0 | 0.00 | 0.00 | 0.00 | 66 | 1022.0 |
| 20260831171600 | 88 | 290 | 0.0 | 4.0 | 0.00 | 0.00 | 0.00 | 69 | 1022.1 |
| 20260831170112 | 87 | 288 | 0.0 | 5.0 | 0.00 | 0.00 | 0.00 | 68 | 1022.3 |
| 20260831164609 | 87 | 0 | 0.0 | 4.0 | 0.00 | 0.00 | 0.00 | 69 | 1022.4 |
| 20260831163100 | 86 | 223 | 0.0 | 7.0 | 0.00 | 0.00 | 0.00 | 71 | 1022.7 |
| 20260831161609 | 86 | 267 | 2.0 | 6.0 | 0.00 | 0.00 | 0.00 | 71 | 1022.6 |
| 20260831160108 | 87 | 188 | 1.0 | 6.0 | 0.00 | 0.00 | 0.00 | 72 | 1022.6 |
| 20260831154618 | 86 | 202 | 1.0 | 5.0 | 0.00 | 0.00 | 0.00 | 72 | 1022.7 |
| 20260831153056 | 86 | 278 | 1.0 | 5.0 | 0.00 | 0.00 | 0.00 | 74 | 1022.7 |
| 20260831151559 | 84 | 286 | 2.0 | 4.0 | 0.00 | 0.00 | 0.00 | 76 | 1022.7 |
| 20260831150105 | 83 | 232 | 1.0 | 4.0 | 0.00 | 0.00 | 0.00 | 76 | 1022.7 |
| 20260831144601 | 83 | 249 | 1.0 | 4.0 | 0.00 | 0.00 | 0.00 | 80 | 1022.7 |
| 20260831143049 | 81 | 0 | 1.0 | 7.0 | 0.00 | 0.00 | 0.00 | 82 | 1022.6 |
| 20260831141604 | 80 | 119 | 3.0 | 7.0 | 0.00 | 0.00 | 0.00 | 83 | 1022.5 |
| 20260831140100 | 79 | 136 | 1.0 | 5.0 | 0.00 | 0.00 | 0.00 | 84 | 1022.3 |
| 20260831134607 | 78 | 130 | 1.0 | 5.0 | 0.00 | 0.00 | 0.00 | 85 | 1022.3 |
| 20260831133055 | 77 | 156 | 3.0 | 7.0 | 0.00 | 0.00 | 0.00 | 87 | 1022.4 |
| 20260831131601 | 76 | 145 | 4.0 | 8.0 | 0.00 | 0.00 | 0.00 | 88 | 1022.3 |
| 20260831130056 | 75 | 140 | 3.0 | 7.0 | 0.00 | 0.00 | 0.00 | 90 | 1022.3 |
| 20260831124555 | 74 | 142 | 0.0 | 3.0 | 0.00 | 0.00 | 0.00 | 91 | 1022.1 |
| 20260831123055 | 73 | 140 | 1.0 | 3.0 | 0.00 | 0.00 | 0.00 | 92 | 1022.0 |
| 20260831121556 | 72 | 142 | 2.0 | 3.0 | 0.00 | 0.00 | 0.00 | 95 | 1021.8 |
| 20260831120052 | 71 | 0 | 0.0 | 0.0 | 0.00 | 0.00 | 0.00 | 95 | 1021.6 |
| 20260831114602 | 70 | 0 | 0.0 | 0.0 | 0.00 | 0.00 | 0.00 | 95 | 1021.5 |
| 20260831113102 | 70 | 0 | 0.0 | 0.0 | 0.00 | 0.00 | 0.00 | 95 | 1021.4 |
| 20260831111557 | 70 | 0 | 0.0 | 2.0 | 0.00 | 0.00 | 0.00 | 95 | 1021.3 |
| 20260831110052 | 71 | 0 | 0.0 | 1.0 | 0.00 | 0.00 | 0.00 | 94 | 1021.4 |
| 20260831104600 | 71 | 0 | 0.0 | 0.0 | 0.00 | 0.00 | 0.00 | 93 | 1021.0 |